Regional Weather Roundup
Issued by NWS

Home | Current Version | Previous Version | Text Only | Print | Product List | Glossary On
Versions: 1 2 3 4 5 6 7 8 9 10 11 12 13 14 15 16 17 18 19 20 21 22 23 24 25 26 27 28 29 30 31 32 33 34 35 36 37 38 39 40 41 42 43 44 45 46 47 48 49 50
000
ASUS44 KLUB 290101
RWRTX
WEST TEXAS WEATHER ROUNDUP
NATIONAL WEATHER SERVICE LUBBOCK TX
800 PM CDT THU AUG 28 2014

NOTE: "FAIR" INDICATES FEW OR NO CLOUDS BELOW 12,000 FEET WITH NO
SIGNIFICANT WEATHER AND/OR OBSTRUCTIONS TO VISIBILITY.

TXZ004-006>008-010-012-014-016-OKZ002-290200-
TEXAS PANHANDLE/OKLAHOMA PANHANDLE

CITY           SKY/WX    TMP DP  RH WIND       PRES   REMARKS
AMARILLO       MOCLDY    72  61  68 SE12      29.96S
BORGER         MOCLDY    83  57  41 S12       29.92S
CANADIAN       CLOUDY    77  68  73 NE3       29.90R
DALHART        MOCLDY    73  51  46 N9        30.00F
DUMAS          MOCLDY    72  53  50 N21G32    29.97F
GUYMON         PTCLDY    83  50  31 CALM      29.93R
HEREFORD       MOCLDY    78  64  61 E12       29.96R
PAMPA          CLOUDY    74  63  67 S10       29.95F
PERRYTON       MOCLDY    76  66  71 SE5       29.93R
$$

TXZ026-029-035-045-048-290200-
SOUTHERN PANHANDLE/SOUTH PLAINS/ROLLING PLAINS

CITY           SKY/WX    TMP DP  RH WIND       PRES   REMARKS
CHILDRESS      CLOUDY    68  65  90 SE14      29.87F
SEMINOLE       PTCLDY    88  56  33 SE15      29.91S
LUBBOCK        MOCLDY    81  64  56 S6        29.90R
PLAINVIEW      MOCLDY    73  63  72 E12       29.93R
SNYDER         MOCLDY    91  60  34 S13G21    29.86S
$$

TXZ052-054-060>062-072-078-127-140-154-169-290200-
PERMIAN BASIN/CONCHO VALLEY/BIG COUNTRY/EDWARDS PLATEAU

CITY           SKY/WX    TMP DP  RH WIND       PRES   REMARKS
ABILENE        CLEAR     92  58  31 S13       29.85R
BIG SPRING     CLOUDY    84  57  39 SE9       29.88F THUNDER
BRADY          CLEAR     90  57  33 SE6       29.85S
BROWNWOOD      CLEAR     91  57  31 SE8       29.84S
JUNCTION       CLEAR     90  61  37 SE6       29.84F
MIDLAND        PTCLDY    79  66  64 SE17      29.89F
ODESSA         PTCLDY    86  60  41 SE16      29.89F
SAN ANGELO     PTCLDY    92  57  30 SE8       29.84R
SONORA         MOCLDY    91  59  33 CALM      29.91R
SWEETWATER     PTCLDY    91  56  31 SE12      29.89R
WINK           CLEAR     97  51  21 S5        29.85R
$$

TXZ055-058-074-075-080-082-290200-
FAR WEST/SOUTHWEST MOUNTAINS/TRANS PECOS

CITY           SKY/WX    TMP DP  RH WIND       PRES   REMARKS
ALPINE         PTCLDY    78  60  52 S9        30.08S
DRYDEN           N/A     97  58  27 S16       29.86R HX  96
EL PASO        PTCLDY    91  48  22 N5        29.97S
FORT STOCKTON  PTCLDY    86  58  38 S12       29.89F
GUADALUPE PASS CLEAR     83  39  21 W22G30    30.09S
MARFA          PTCLDY    81  55  41 E12       30.07S
PRESIDIO       FAIR      95  56  26 CALM      29.87F
$$

TXZ014-016-019-021>030-083-290200
TEXAS TECH WEST TEXAS MESONET/TEXAS PANHANDLE/NORTHERN SOUTH PLAINS

CITY           SKY/WX    TMP DP  RH WIND       PRES   REMARKS
ABERNATHY 5ENE   N/A     79  61  52 E7        29.92R
AMARILLO 9NNE    N/A     75  60  57 SE12      29.94R
AMARILLO 7SSE    N/A     73  61  64 E9        29.97R
AMHERST 1NE      N/A     88  39  17 W15       29.92R
BOOTLEG 11WNW    N/A     85  39  19 W6        29.99S
CANADIAN 6E      N/A     73  69  89 NE7       29.90R
CAPROCK CYN SP   N/A     69  64  84 SE2       29.92S
CHILDRESS 2NNE   N/A     66  65  95 SE12      29.86F
CLARENDON 2WSW   N/A     67  62  83 SW2       29.92F
CLAUDE 12SW      N/A     70  62  77 SE5       29.94F
DIMMITT 2NE      N/A     81  61  51 NE7       29.95R
FLOYDADA 2NNE    N/A     69  65  85 E10       29.93R
FRIONA 2NE       N/A     87  35  15 W8        29.95S
GOODLETT 3W      N/A     67  63  87 SE10      29.90F
HART 3N          N/A     76  62  61 E14       29.95R
HEREFORD 2NW     N/A     78  61  55 E14       29.95R
MCLEAN 1E        N/A     68  65  91 SE6       29.91F
MEMPHIS 1NE      N/A     67  65  93 CALM      29.88R
MULESHOE 2SSW    N/A     87  39  18 W9        29.94S
OLTON 6S         N/A     81  60  48 E9        29.92R
PALO DURO SP     N/A     73  61  66 S6        29.97R
PAMPA 2E         N/A     74  65  74 SE9       29.94S
PLAINVIEW 1S     N/A     73  63  72 NE10      29.93R
TULIA 2ENE       N/A     76  62  60 E13       29.94S
TURKEY 2WSW      N/A     69  63  82 S5        29.88F
UMBARGER 3NNE    N/A     76  60  58 E9        29.97R
$$

TXZ033>036-039>041-045>048-290200
TEXAS TECH WEST TEXAS MESONET/SOUTH PLAINS

CITY           SKY/WX    TMP DP  RH WIND       PRES   REMARKS
AIKEN 3WSW       N/A     71  65  81 E10       29.94R
ANDREWS 2NE      N/A     87  58  37 E9        29.89S
ANTON 6SSW       N/A     91  44  19 W9        29.89S
BROWNFIELD 2S    N/A     83  60  45 S10       29.89S
DENVR CTY 7WNW   N/A     88  47  24 NW8       29.91S
GAIL 2ESE        N/A     91  56  30 SW7       29.84S
LAMESA 2SE       N/A     82  63  52 S9        29.89R
LEVELLAND 4S     N/A     88  45  22 W10       29.91R
LUBBOCK 3WNW     N/A     78  63  60 SE3       29.90R
MORTON 1ENE      N/A     87  42  20 W8        29.93S
ODONNELL 1N      N/A     86  55  34 S10       29.88S
PLAINS 3N        N/A     90  45  21 W8        29.92S
RALLS 1SE        N/A     73  66  78 NE9       29.91F
REESE CENTER     N/A     80  65  59 S6        29.90S
SEAGRAVES 1SW    N/A     87  58  37 SE10      29.90S
SEMINOLE 2NNE    N/A     88  55  32 SE9       29.89S
SLATON 2NE       N/A     76  67  74 S9        29.88F
SNYDER 3E        N/A     91  57  31 SE14      29.84S
SUNDOWN 8SW      N/A     90  44  19 W10       29.91S
TAHOKA 3NNE      N/A     82  66  58 SE2       29.88F
WOLFFORTH 6SSW   N/A     80  64  56 S6        29.90S
$$

TXZ031-032-036>038-042>044-290200-
TEXAS TECH WEST TEXAS MESONET/ROLLING PLAINS

CITY           SKY/WX    TMP DP  RH WIND       PRES   REMARKS
ASPERMONT 3NE    N/A     76  65  70 N22G33    29.85R
FLUVANNA 3WNW    N/A     91  56  30 SW14      29.86R
GRAHAM 5SSW      N/A     87  55  34 W2        29.87F
GUTHRIE 10WSW  LGT RAIN  70  68  94 E14       29.88R
HASKELL 1NW      N/A     84  63  48 E10       29.82R
JAYTON 1SSE      N/A     74  67  78 N22G32    29.86R
KNOX CITY 3NW  LGT RAIN  70  63  79 NW22      29.90R
LK A HENRY 1NW   N/A     93  58  30 S5        29.82R
NORTHFIELD 1S    N/A     67  66  95 SE6       29.88S
ODELL 4ENE     LGT RAIN  70  64  83 NW24      29.94R
PADUCAH 10SW     N/A     68  66  94 SE7       29.89F
POST 1NE         N/A     84  60  44 W5        29.86S
SEYMOUR 3NW      N/A     75  63  65 NW20      29.89R
SPUR 1W          N/A     72  66  81 E9        29.88R
WEINERT 2NNE     N/A     78  62  59 N20       29.89R
WHITE RVR 6NE  LGT RAIN  70  66  87 NE16      29.86F
$$

TXZ052-054-060>062-072-078-127-140-154-169-290200-
TEXAS TECH WEST TEXAS MESONET/PERMIAN BASIN/
CONCHO VALLEY/BIG COUNTRY/EDWARDS PLATEAU

CITY           SKY/WX    TMP DP  RH WIND       PRES   REMARKS
JUNCTION 1SSW    N/A     91  61  37 SE5       29.85S
MERTZON 3NNE     N/A     92  61  34 SE9       29.86S
SAN ANGELO 7NW   N/A     91  57  31 E9        29.85R
STRLNG CT 4WSW   N/A     92  60  34 S14       29.87R
ST LAWRNCE 5SW LGT RAIN  74  66  78 SW15      29.89F
SWEETWATR 11SW   N/A     90  60  37 SE12      29.88R
WALL 1E          N/A     88  61  40 SE7       29.86R
$$

TXZ055-058-074-075-080-082-290200-
TEXAS TECH WEST TEXAS MESONET/FAR WEST/SOUTHWEST MOUNTAINS/TRANS PECOS

CITY           SKY/WX    TMP DP  RH WIND       PRES   REMARKS
PRSMN GAP BBNP   N/A     79  64  59 NE18      29.92R
GUADLPE MTN NP   N/A     79  38  22 W14       30.10S
$$



USA.gov is the U.S. government's official web portal to all federal, state and local government web resources and services.